SCP
-0 0 0 0 0 0 0 0 -0 -0 -0 -0 -0 -0 -0 -0 -0 -0 -0 0 0 -0 -0 -0 -0 -0 -0 -0 0 0 -0 -0
-0 -0 -0 -0 0 -0 0 -0 0 0 -0 -0 0 0 -0 -0 -0 -0 -0 0 -0 -0 -0 -0 -0 -0 -0 -0 -0 0 -0 -0
0 0 0 0 0 0 0 -0 -0 0 0 0 0 -0 -0 -0 -0 -0 -0 0 -0 -0 -0 -0 -0 -0 -0 -0 0 -0 -0 -0
-0 0 0 0 0 0 -0 0 -0 0 0 0 0 0 0 0 0 -0 -0 0 0 -0 -0 -0 -0 -0 -0 -0 -0 -0 -0 -0
-0 0 0 0 -0 -0 -0 -0 -0 0 0 -0 0 0 0 0 0 0 -0 -0 0 0 -0 -0 -0 0 0 0 -0 -0 -0 -0
-0 0 0 0 0 -0 -0 -0 -0 -0 -0 -0 0 0 0 0 0 0 -0 -0 0 0 0 0 0 -0 -0 -0 -0 -0 -0 -0
-0 -0 0 0 -0 -0 -0 -0 0 0 -0 0 -0 0 0 0 0 0 -0 -0 -0 -0 0 0 0 0 -0 -0 -0 -0 -0 -0
-0 -0 0 0 0 -0 -0 -0 -0 0 0 -0 -0 0 0 0 0 0 -0 -0 -0 -0 -0 0 0 0 0 -0 -0 -0 0 -0
-0 0 0 0 -0 -0 0 -0 0 0 0 -0 -0 0 0 0 0 -0 -0 -0 -0 -0 -0 -0 -0 0 0 0 0 0 -0 -0
-0 -0 -0 0 -0 -0 0 -0 -0 -0 -0 -0 0 0 0 0 0 0 0 -0 -0 -0 -0 -0 -0 -0 -0 -0 0 0 0 0
-0 -0 0 0 0 0 -0 0 0 -0 0 -0 -0 -0 -0 0 -0 -0 -0 0 -0 -0 -0 -0 -0 -0 -0 -0 -0 0 0 0
0 -0 0 0 0 -0 -0 0 -0 -0 -0 -0 -0 -0 -0 -0 0 -0 -0 -0 -0 0 0 -0 -0 -0 -0 -0 -0 -0 -0 0
0 0 0 0 -0 0 0 -0 -0 -0 -0 -0 -0 -0 -0 -0 -0 -0 0 -0 0 0 0 0 0 0 0 -0 -0 0 0 -0
0 0 0 0 0 0 0 -0 -0 -0 -0 -0 -0 -0 -0 -0 -0 -0 -0 -0 -0 0 0 0 0 -0 0 0 0 0 0 0
0 0 0 0 0 0 0 0 0 0 0 0 -0 -0 -0 -0 -0 -0 -0 -0 -0 0 0 -0 0 0 -0 -0 -0 0 0 0
0 0 0 0 0 0 0 0 0 0 0 0 0 0 0 0 0 0 0 -0 -0 0 -0 0 0 0 0 0 0 0 0 0
0 0 0 0 0 0 0 0 0 0 0 0 0 0 0 0 0 0 0 0 0 0 0 0 0 0 0 0 0 0 0 0
0 0 0 0 0 0 0 0 0 0 0 0 0 0 0 0 0 0 0 0 0 0 0 0 0 0 0 0 0 0 0 0
0 0 0 0 0 0 0 0 0 0 0 0 0 0 0 0 0 0 0 0 0 0 0 0 0 0 0 0 0 0 0 0
0 0 0 0 0 0 0 0 0 0 0 0 0 0 0 0 0 0 0 0 0 0 0 0 0 0 0 0 0 0 0 0
Wind_Speed_500mb
8 5 1 6 4 5 6 12 1 7 8 4 10 9 14 32 35 41 43 44 42 38 32 30 31 33 35 36 36 36 33 32
8 6 9 10 7 8 9 12 13 8 8 5 10 6 21 34 35 40 42 43 40 35 32 32 33 34 36 37 37 36 33 32
6 10 10 10 3 9 6 3 4 9 7 7 9 7 19 22 32 35 40 41 38 34 32 34 35 35 36 37 37 35 32 31
5 10 10 13 8 9 7 8 3 7 11 7 7 8 23 23 30 32 36 39 38 36 34 35 35 35 36 36 36 34 31 29
4 8 12 10 7 2 2 11 9 11 7 6 16 20 31 34 32 34 36 37 37 36 36 34 34 35 36 35 35 33 31 27
6 2 10 15 10 10 7 1 4 12 7 6 29 31 35 32 32 34 35 35 34 34 34 35 36 36 36 36 34 33 31 28
8 7 7 23 11 5 10 12 6 5 6 8 34 40 39 37 35 36 36 34 32 32 33 33 35 36 37 36 35 34 32 29
11 5 5 9 4 4 6 9 8 21 18 17 37 44 39 37 40 40 37 34 32 32 31 33 35 37 37 36 37 35 33 30
12 20 20 6 6 10 11 11 29 17 24 39 45 43 38 35 35 31 31 33 33 32 32 34 35 35 37 38 38 37 35 33
12 23 10 7 8 9 22 18 23 25 24 40 47 42 41 37 34 37 36 28 33 37 38 37 38 38 38 39 40 40 38 38
20 20 26 19 37 14 17 42 32 21 14 11 14 17 14 24 29 34 35 35 35 42 41 43 43 42 41 39 39 37 38 39
9 17 7 47 65 33 101 47 57 57 54 47 42 22 9 20 31 44 46 42 42 45 47 44 44 43 44 43 40 38 38 39
42 21 15 19 66 43 62 72 92 88 84 74 69 60 58 38 17 30 34 43 53 53 49 45 45 47 47 46 44 42 41 40
16 45 31 38 29 53 67 90 84 81 80 86 89 83 69 61 51 19 15 32 38 47 57 54 53 51 50 49 47 46 42 42
15 57 12 22 13 49 64 75 82 80 78 76 87 90 84 75 67 57 29 6 23 26 24 51 60 59 58 54 50 46 44 40
16 23 59 51 38 41 62 74 72 71 71 78 81 78 78 79 77 71 58 37 13 11 27 40 42 58 64 63 59 55 53 49
36 20 36 40 39 34 52 75 69 67 71 77 72 64 67 71 74 72 67 59 50 22 6 19 26 31 45 64 69 67 64 61
21 42 35 30 35 30 49 56 59 60 67 73 75 72 71 69 71 72 68 66 60 53 41 23 7 19 36 42 44 58 67 67
17 19 39 24 15 16 24 53 55 60 58 70 72 74 74 73 70 65 66 65 58 52 47 44 34 12 19 24 27 24 34 39
50 17 10 3 6 5 11 24 45 53 59 64 73 69 69 70 67 66 61 55 49 45 42 40 38 34 27 21 17 21 28 36
Wind_Direction_500mb
84 101 41 268 316 268 318 39 193 104 72 19 333 305 167 159 161 167 175 173 168 171 175 175 170 163 158 154 151 148 144 140
73 303 261 221 213 179 3 59 27 100 58 43 10 69 151 155 167 171 177 174 168 169 176 177 173 166 161 159 154 150 147 142
27 278 271 267 318 191 103 225 117 146 152 102 92 108 160 166 173 178 179 175 170 172 175 178 173 169 166 163 157 153 152 145
323 284 288 294 332 182 171 271 338 119 101 141 190 162 164 169 172 178 181 179 176 175 179 178 175 173 171 168 162 159 158 152
242 280 318 305 38 93 218 346 17 126 128 228 199 180 169 166 172 179 186 182 182 182 180 181 179 178 178 174 171 167 166 161
260 216 276 336 5 19 224 38 281 194 191 212 186 174 169 172 180 186 187 188 189 189 187 185 184 185 185 182 179 177 177 175
259 190 288 342 7 20 298 265 198 210 296 288 177 169 176 181 186 191 191 191 192 198 196 193 192 191 193 191 189 189 189 189
227 260 63 305 312 240 291 286 255 257 263 222 181 178 187 190 188 190 192 194 197 201 202 203 202 200 200 201 201 199 200 201
269 281 303 289 263 206 213 253 243 216 209 188 184 186 194 194 190 189 188 196 202 201 206 212 212 210 208 209 210 209 210 213
264 284 266 224 239 246 221 246 331 266 229 191 186 198 199 200 201 201 199 203 208 207 209 213 214 216 216 215 214 216 217 220
236 251 253 255 355 275 282 289 270 305 161 84 21 2 243 243 245 238 241 245 241 229 223 221 219 219 222 223 222 223 223 226
244 247 194 79 25 39 340 349 57 65 76 75 65 50 315 304 296 291 276 265 258 249 241 239 241 238 237 236 237 238 238 238
15 319 56 101 29 15 22 64 57 56 58 64 59 56 47 33 346 290 280 288 284 278 260 251 249 249 250 249 246 243 246 247
357 351 13 89 50 23 29 62 56 52 52 51 50 49 50 47 45 38 264 254 258 274 276 267 257 252 252 254 255 252 252 254
20 12 87 68 79 30 37 54 58 49 45 44 44 51 49 49 50 50 53 270 250 254 280 281 271 261 257 255 252 250 256 262
95 35 81 79 72 46 39 48 50 45 39 38 36 32 39 42 45 49 52 57 78 212 238 251 263 269 263 262 262 256 256 256
134 152 65 80 74 52 44 45 39 37 32 30 31 29 31 32 33 39 44 46 47 37 345 249 248 258 273 272 266 263 262 266
65 96 98 97 76 65 49 51 42 34 32 25 25 25 24 24 26 28 30 33 36 34 33 34 288 253 255 259 274 273 269 268
148 104 135 107 69 34 49 47 37 30 27 26 22 17 20 23 23 21 21 21 23 21 19 19 17 322 250 243 246 263 267 270
147 140 171 137 172 34 17 35 31 21 18 14 13 16 17 17 21 19 19 16 16 13 11 6 357 351 359 350 298 255 247 232
Wind_Speed_850mb
8 5 1 6 4 5 6 12 1 7 8 4 10 9 14 32 35 41 43 44 42 38 32 30 31 33 35 36 36 36 33 32
8 6 9 10 7 8 9 12 13 8 8 5 10 6 21 34 35 40 42 43 40 35 32 32 33 34 36 37 37 36 33 32
6 10 10 10 3 9 6 3 4 9 7 7 9 7 19 22 32 35 40 41 38 34 32 34 35 35 36 37 37 35 32 31
5 10 10 13 8 9 7 8 3 7 11 7 7 8 23 23 30 32 36 39 38 36 34 35 35 35 36 36 36 34 31 29
4 8 12 10 7 2 2 11 9 11 7 6 16 20 31 34 32 34 36 37 37 36 36 34 34 35 36 35 35 33 31 27
6 2 10 15 10 10 7 1 4 12 7 6 29 31 35 32 32 34 35 35 34 34 34 35 36 36 36 36 34 33 31 28
8 7 7 23 11 5 10 12 6 5 6 8 34 40 39 37 35 36 36 34 32 32 33 33 35 36 37 36 35 34 32 29
11 5 5 9 4 4 6 9 8 21 18 17 37 44 39 37 40 40 37 34 32 32 31 33 35 37 37 36 37 35 33 30
12 20 20 6 6 10 11 11 29 17 24 39 45 43 38 35 35 31 31 33 33 32 32 34 35 35 37 38 38 37 35 33
12 23 10 7 8 9 22 18 23 25 24 40 47 42 41 37 34 37 36 28 33 37 38 37 38 38 38 39 40 40 38 38
20 20 26 19 37 14 17 42 32 21 14 11 14 17 14 24 29 34 35 35 35 42 41 43 43 42 41 39 39 37 38 39
9 17 7 47 65 33 101 47 57 57 54 47 42 22 9 20 31 44 46 42 42 45 47 44 44 43 44 43 40 38 38 39
42 21 15 19 66 43 62 72 92 88 84 74 69 60 58 38 17 30 34 43 53 53 49 45 45 47 47 46 44 42 41 40
16 45 31 38 29 53 67 90 84 81 80 86 89 83 69 61 51 19 15 32 38 47 57 54 53 51 50 49 47 46 42 42
15 57 12 22 13 49 64 75 82 80 78 76 87 90 84 75 67 57 29 6 23 26 24 51 60 59 58 54 50 46 44 40
16 23 59 51 38 41 62 74 72 71 71 78 81 78 78 79 77 71 58 37 13 11 27 40 42 58 64 63 59 55 53 49
36 20 36 40 39 34 52 75 69 67 71 77 72 64 67 71 74 72 67 59 50 22 6 19 26 31 45 64 69 67 64 61
21 42 35 30 35 30 49 56 59 60 67 73 75 72 71 69 71 72 68 66 60 53 41 23 7 19 36 42 44 58 67 67
17 19 39 24 15 16 24 53 55 60 58 70 72 74 74 73 70 65 66 65 58 52 47 44 34 12 19 24 27 24 34 39
50 17 10 3 6 5 11 24 45 53 59 64 73 69 69 70 67 66 61 55 49 45 42 40 38 34 27 21 17 21 28 36
Wind_Direction_850mb
84 101 41 268 316 268 318 39 193 104 72 19 333 305 167 159 161 167 175 173 168 171 175 175 170 163 158 154 151 148 144 140
73 303 261 221 213 179 3 59 27 100 58 43 10 69 151 155 167 171 177 174 168 169 176 177 173 166 161 159 154 150 147 142
27 278 271 267 318 191 103 225 117 146 152 102 92 108 160 166 173 178 179 175 170 172 175 178 173 169 166 163 157 153 152 145
323 284 288 294 332 182 171 271 338 119 101 141 190 162 164 169 172 178 181 179 176 175 179 178 175 173 171 168 162 159 158 152
242 280 318 305 38 93 218 346 17 126 128 228 199 180 169 166 172 179 186 182 182 182 180 181 179 178 178 174 171 167 166 161
260 216 276 336 5 19 224 38 281 194 191 212 186 174 169 172 180 186 187 188 189 189 187 185 184 185 185 182 179 177 177 175
259 190 288 342 7 20 298 265 198 210 296 288 177 169 176 181 186 191 191 191 192 198 196 193 192 191 193 191 189 189 189 189
227 260 63 305 312 240 291 286 255 257 263 222 181 178 187 190 188 190 192 194 197 201 202 203 202 200 200 201 201 199 200 201
269 281 303 289 263 206 213 253 243 216 209 188 184 186 194 194 190 189 188 196 202 201 206 212 212 210 208 209 210 209 210 213
264 284 266 224 239 246 221 246 331 266 229 191 186 198 199 200 201 201 199 203 208 207 209 213 214 216 216 215 214 216 217 220
236 251 253 255 355 275 282 289 270 305 161 84 21 2 243 243 245 238 241 245 241 229 223 221 219 219 222 223 222 223 223 226
244 247 194 79 25 39 340 349 57 65 76 75 65 50 315 304 296 291 276 265 258 249 241 239 241 238 237 236 237 238 238 238
15 319 56 101 29 15 22 64 57 56 58 64 59 56 47 33 346 290 280 288 284 278 260 251 249 249 250 249 246 243 246 247
357 351 13 89 50 23 29 62 56 52 52 51 50 49 50 47 45 38 264 254 258 274 276 267 257 252 252 254 255 252 252 254
20 12 87 68 79 30 37 54 58 49 45 44 44 51 49 49 50 50 53 270 250 254 280 281 271 261 257 255 252 250 256 262
95 35 81 79 72 46 39 48 50 45 39 38 36 32 39 42 45 49 52 57 78 212 238 251 263 269 263 262 262 256 256 256
134 152 65 80 74 52 44 45 39 37 32 30 31 29 31 32 33 39 44 46 47 37 345 249 248 258 273 272 266 263 262 266
65 96 98 97 76 65 49 51 42 34 32 25 25 25 24 24 26 28 30 33 36 34 33 34 288 253 255 259 274 273 269 268
148 104 135 107 69 34 49 47 37 30 27 26 22 17 20 23 23 21 21 21 23 21 19 19 17 322 250 243 246 263 267 270
147 140 171 137 172 34 17 35 31 21 18 14 13 16 17 17 21 19 19 16 16 13 11 6 357 351 359 350 298 255 247 232